Regional Weather Roundup
Issued by NWS

Home | Current Version | Previous Version | Text Only | Print | Product List | Glossary On
Versions: 1 2 3 4 5 6 7 8 9 10 11 12 13 14 15 16 17 18 19 20 21 22 23 24 25 26 27 28 29 30 31 32 33 34 35 36 37 38 39 40 41 42 43 44 45 46 47
000
ASUS45 KTFX 290810
RWRMT
MONTANA REGIONAL WEATHER ROUNDUP
NATIONAL WEATHER SERVICE GREAT FALLS MT
200 AM MDT FRI MAY 29 2015

NOTE: "FAIR" INDICATES FEW OR NO CLOUDS BELOW 12000 FEET WITH NO
SIGNIFICANT WEATHER AND/OR OBSTRUCTIONS TO VISIBILITY.

MTZ001>007-043-290900-
WEST OF THE DIVIDE

CITY           SKY/WX    TMP DP  RH WIND       PRES   REMARKS
KALISPELL      SUNNY     43  39  86 CALM      30.20S
MISSOULA       CLEAR     54  43  66 E14       30.22S
BUTTE          CLOUDY    47  42  83 VRB3      30.29S
MULLAN PASS    CLEAR     44  42  93 SE10G20   30.22F
DEER LODGE       N/A     45  43  93 CALM      30.32S
EUREKA           N/A     52  48  87 CALM      30.21
HAMILTON         N/A     50  45  81 SE3       30.21S
LIBBY            N/A     52  52 100 CALM      30.20S
RONAN            N/A     51  46  83 NW3       30.22F
$$

MTZ008-052>055-290900-
SOUTHWEST MONTANA

CITY           SKY/WX    TMP DP  RH WIND       PRES   REMARKS
BOZEMAN        CLOUDY    48  46  93 S5        30.26F
DILLON         CLOUDY    47  43  86 NE7       30.27S
W YELLOWSTONE  PTCLDY    41  37  87 CALM      30.29R
THREE FORKS      N/A     50  28  42 CALM      30.24S
TWIN BRIDGES     N/A     47  41  80 N12       30.22S
$$

MTZ009-010-012-014-046-048-049-054-290900-
EAST SLOPES AND CENTRAL MONTANA

CITY           SKY/WX    TMP DP  RH WIND       PRES   REMARKS
CUT BANK       CLEAR     42  39  89 CALM      30.31S
GREAT FALLS    CLOUDY    45  44  97 NE6       30.31F FOG
MALMSTROM AFB  CLOUDY    46  44  96 N3        30.32F FOG
HELENA         CLOUDY    50  43  77 NW5       30.29F
CONRAD           N/A     45  45 100 CALM      30.30F
$$

MTZ011-013-016-021-045-047-050-051-290900-
NORTH CENTRAL MONTANA

CITY           SKY/WX    TMP DP  RH WIND       PRES   REMARKS
HAVRE          CLEAR     39  38  96 SW6       30.31R
LEWISTOWN      CLOUDY    45  41  86 N9        30.30S
N BAR RANCH    CLOUDY    43  43 100 N9        30.30S FOG
CHINOOK          N/A     39  39 100 CALM      30.31S
FORT BENTON      N/A     48  43  81 CALM      30.33S
$$

MTZ017>020-022>027-061-062-290900-
NORTHEAST MONTANA

CITY           SKY/WX    TMP DP  RH WIND       PRES   REMARKS
GLASGOW        CLEAR     40  36  86 NE8       30.27S
JORDAN           N/A     47  43  86 N9        30.26R
SIDNEY         CLOUDY    48  36  61 NW14G21   30.21R
WOLF POINT     CLEAR     41  36  82 N7        30.27R
MALTA            N/A     42  35  76 NW6       30.24S
PLENTYWOOD       N/A     36  32  87 N7        30.26R WCI  30
POPLAR           N/A     39  36  87 CALM      30.27R
$$

MTZ028>42-056>058-290900-
SOUTHCENTRAL AND SOUTHEAST MONTANA

CITY           SKY/WX    TMP DP  RH WIND       PRES   REMARKS
BAKER          CLOUDY    47  43  86 N15G25    30.16R
BILLINGS       CLOUDY    50  48  93 N13       30.25R
LIVINGSTON     CLOUDY    49  45  86 NW7       30.26S
MILES CITY     CLOUDY    50  42  74 N17       30.21R
BIG TIMBER       N/A     48  46  93 N8        30.28R
EKALAKA          N/A     48  45  90 N12       30.11R
LAUREL           N/A     50  46  85 N6        30.21R
ROUNDUP          N/A     47  43  86 N9        30.17R
$$

REGIONAL REPORTS...DAKOTAS

CITY           SKY/WX    TMP DP  RH WIND       PRES   REMARKS
WILLISTON      CLOUDY    47  35  63 N17       30.21R
MINOT          CLOUDY    49  40  71 N21G32    30.10S
DICKINSON      CLOUDY    49  45  86 N16G24    30.09R
BEACH          CLOUDY    46  45  93 N17G24    30.17R
CROSBY         CLOUDY    45  36  70 N10       30.23R
WATFORD CITY   CLOUDY    46  41  81 N16       30.16R
BISMARCK       CLOUDY    54  49  83 N17G28    30.02R
GRAND FORKS    CLOUDY    52  49  89 N23G32    29.93R
FARGO          LGT RAIN  63  61  93 CALM      29.85S
BUFFALO SD       N/A     55  52  89 N16       30.01R
RAPID CITY     CLOUDY    57  51  80 N22G29    30.03R
$$

REGIONAL REPORTS...WYOMING/IDAHO/WASHINGTON

CITY           SKY/WX    TMP DP  RH WIND       PRES   REMARKS
GILLETTE       CLOUDY    51  49  92 N13       30.13S FOG
SHERIDAN       RAIN      51  49  92 NW12      30.20S
BUFFALO WY     LGT RAIN  49  47  93 NW14      30.19F
CODY           CLOUDY    48  45  87 N10       30.24S
YELLOWSTONE LA   N/A     35  33  92 CALM      30.32S
IDAHO FALLS    CLEAR     47  44  90 NE5       30.22S
SALMON         MOCLDY    46  45  93 CALM      30.22R
BOISE          CLEAR     61  47  59 SE9       30.05S
SPOKANE        MOCLDY    60  52  74 E9        30.07F
$$

REGIONAL REPORTS...ALBERTA

CITY           SKY/WX    TMP DP  RH WIND       PRES   REMARKS
EDMONTON       CLEAR     37  27  65 E6        30.31F
CALGARY        MOCLDY    48  41  76 S8        30.26F
LETHBRIDGE     CLEAR     39  37  93 S8        30.29F FOG
MEDICINE HAT   CLEAR     37  34  87 SW3       30.32R
$$

REGIONAL REPORTS...SASKATCHEWAN

CITY           SKY/WX    TMP DP  RH WIND       PRES   REMARKS
SWIFT CURRENT  CLEAR     36  28  75 E9        30.30S WCI  29
REGINA         CLOUDY    41  30  65 N9        30.29R
SASKATOON      CLEAR     32  28  86 N7        30.36R WCI  26
$$


USA.gov is the U.S. government's official web portal to all federal, state and local government web resources and services.